PDT,Max TemperatureF,Mean TemperatureF,Min TemperatureF,Max Dew PointF,MeanDew PointF,Min DewpointF,Max Humidity, Mean Humidity, Min Humidity, Max Sea Level PressureIn, Mean Sea Level PressureIn, Min Sea Level PressureIn, Max VisibilityMiles, Mean VisibilityMiles, Min VisibilityMiles, Max Wind SpeedMPH, Mean Wind SpeedMPH, Max Gust SpeedMPH,PrecipitationIn, CloudCover, Events, WindDirDegrees
2013-9-1,98,86,75,76,72,68,89,65,37,29.92,29.78,29.68,10,10,7,17,7,24,0.12,1,Rain-Thunderstorm,5
2013-9-2,107,94,82,76,66,57,74,44,20,29.88,29.73,29.62,10,10,10,23,5,33,0.00,1,Rain-Thunderstorm,166
2013-9-3,105,93,82,70,64,55,65,43,20,29.83,29.75,29.68,10,10,10,7,4,,0.00,0,,336
2013-9-4,107,94,84,68,63,57,53,37,21,29.81,29.76,29.72,10,10,10,17,4,29,0.00,0,,293
2013-9-5,109,96,82,68,60,53,60,32,17,29.81,29.74,29.66,10,10,10,10,3,,0.00,0,,333
2013-9-6,109,96,84,66,59,52,55,32,16,29.90,29.74,29.65,10,10,9,25,7,37,0.00,0,Rain,182
2013-9-7,90,85,81,70,66,61,69,52,39,29.87,29.80,29.75,10,10,10,8,3,,0.01,1,Rain,134
2013-9-8,96,87,79,68,63,58,67,46,29,29.79,29.72,29.63,10,10,10,16,8,16,0.00,3,Rain,4
2013-9-9,97,84,73,72,65,59,90,55,31,29.75,29.67,29.60,10,10,7,29,6,40,0.09,3,Rain-Thunderstorm,358
2013-9-10,84,78,73,70,67,63,87,70,49,29.80,29.75,29.70,10,10,10,12,3,17,0.04,3,Rain,134
2013-9-11,95,84,75,67,63,55,74,53,28,29.87,29.81,29.75,10,10,10,21,4,25,0.00,0,,50
2013-9-12,97,86,75,64,60,52,64,44,22,29.86,29.77,29.68,10,10,10,10,5,,0.00,0,,8
2013-9-13,102,90,78,61,56,42,56,34,13,29.70,29.62,29.52,10,10,10,12,7,,0.00,0,,352
2013-9-14,104,91,78,59,54,47,45,30,15,29.63,29.57,29.51,10,10,10,12,4,,0.00,0,,322
2013-9-15,106,93,80,60,54,46,49,29,14,29.68,29.62,29.56,10,10,10,7,3,,0.00,0,,11
2013-9-16,108,94,81,56,51,45,41,25,13,29.71,29.63,29.56,10,10,10,12,4,,0.00,0,,229
2013-9-17,108,94,80,54,43,29,34,19,9,29.62,29.54,29.44,10,10,10,22,7,30,0.00,0,,236
2013-9-18,102,90,78,40,32,19,23,14,6,29.60,29.55,29.50,10,10,10,10,6,,0.00,0,,242
2013-9-19,100,86,73,40,35,31,25,16,9,29.70,29.64,29.59,10,10,10,21,6,28,0.00,0,,323
2013-9-20,104,87,72,44,37,30,37,19,8,29.73,29.65,29.58,10,10,10,13,4,30,0.00,0,,216
2013-9-21,100,90,81,50,39,14,32,18,5,29.68,29.58,29.47,10,10,10,23,8,32,0.00,0,,216
2013-9-22,89,80,71,44,35,28,32,21,12,29.71,29.62,29.51,10,10,10,16,8,25,0.00,0,,319
2013-9-23,95,80,66,39,33,30,30,19,10,29.82,29.77,29.72,10,10,10,14,5,20,0.00,0,,294
2013-9-24,99,82,66,36,31,25,28,17,9,29.87,29.75,29.64,10,10,10,15,5,20,0.00,0,,209
2013-9-25,98,86,75,43,34,26,31,17,9,29.63,29.51,29.41,10,10,10,17,9,30,0.00,0,,219
2013-9-26,82,74,66,35,28,17,30,18,12,29.73,29.60,29.47,10,10,10,20,10,28,0.00,0,,285
2013-9-27,82,72,63,30,26,18,25,18,12,29.94,29.88,29.75,10,10,10,23,11,28,0.00,0,,357
2013-9-28,89,76,62,33,25,17,30,17,8,30.03,29.96,29.91,10,10,10,10,6,,0.00,0,,332
2013-9-29,93,76,60,29,23,17,23,15,8,30.02,29.93,29.84,10,10,10,10,5,,0.00,0,,206
2013-9-30,96,79,62,34,28,24,28,17,8,29.89,29.80,29.71,10,10,10,13,5,16,0.00,0,,254